| time (UTC) | temp C | wind direction | speed KPH | gust KPH | rain 1hr cm | rain 24hr cm | rain mn cm | humidity % | barometer mb |
| 20260507034650 | 16 | 158 | 0.0 | 0.0 | 0.00 | 0.00 | 0.00 | 83 | 1012.0 |
| 20260507033649 | 16 | 158 | 0.0 | 0.0 | 0.00 | 0.00 | 0.00 | 83 | 1012.0 |
| 20260507032649 | 16 | 158 | 0.0 | 0.0 | 0.00 | 0.00 | 0.00 | 82 | 1012.0 |
| 20260507031649 | 16 | 217 | 0.0 | 0.0 | 0.00 | 0.00 | 0.00 | 82 | 1012.0 |
| 20260507030619 | 16 | 229 | 0.0 | 0.0 | 0.00 | 0.00 | 0.00 | 82 | 1012.0 |
| 20260507025619 | 16 | 207 | 0.0 | 0.0 | 0.00 | 0.00 | 0.00 | 82 | 1012.0 |
| 20260507024549 | 16 | 241 | 0.0 | 0.0 | 0.00 | 0.00 | 0.00 | 83 | 1012.0 |
| 20260507023549 | 16 | 221 | 0.0 | 0.0 | 0.00 | 0.00 | 0.00 | 83 | 1012.0 |
| 20260507022549 | 16 | 181 | 0.0 | 0.0 | 0.00 | 0.00 | 0.00 | 83 | 1012.0 |
| 20260507021549 | 16 | 222 | 0.0 | 0.0 | 0.00 | 0.00 | 0.00 | 83 | 1012.0 |
| 20260507020449 | 16 | 220 | 0.0 | 0.0 | 0.00 | 0.00 | 0.00 | 83 | 1012.0 |
| 20260507015449 | 16 | 208 | 0.0 | 0.0 | 0.00 | 0.00 | 0.00 | 83 | 1012.0 |
| 20260507014449 | 16 | 235 | 0.0 | 0.0 | 0.00 | 0.00 | 0.00 | 83 | 1012.0 |
| 20260507013419 | 17 | 234 | 0.0 | 0.0 | 0.00 | 0.00 | 0.00 | 82 | 1012.0 |
| 20260507012349 | 17 | 258 | 0.0 | 0.0 | 0.00 | 0.00 | 0.00 | 81 | 1012.0 |
| 20260507011319 | 17 | 259 | 0.0 | 0.0 | 0.00 | 0.00 | 0.00 | 80 | 1012.0 |
| 20260507010319 | 17 | 288 | 0.0 | 0.0 | 0.00 | 0.00 | 0.00 | 79 | 1011.0 |
| 20260507005319 | 17 | 298 | 0.0 | 0.0 | 0.00 | 0.00 | 0.00 | 80 | 1011.0 |
| 20260507004249 | 17 | 274 | 0.0 | 0.0 | 0.00 | 0.00 | 0.00 | 80 | 1011.0 |
| 20260507003249 | 17 | 275 | 0.0 | 0.0 | 0.00 | 0.00 | 0.00 | 76 | 1012.0 |
| 20260507002219 | 17 | 300 | 0.0 | 0.0 | 0.00 | 0.00 | 0.00 | 75 | 1012.0 |
| 20260507001149 | 18 | 264 | 0.0 | 0.0 | 0.00 | 0.00 | 0.00 | 74 | 1012.0 |
| 20260507000149 | 18 | 275 | 0.0 | 0.0 | 0.00 | 0.00 | 0.00 | 72 | 1011.0 |
| 20260506235119 | 18 | 294 | 0.0 | 0.0 | 0.00 | 0.00 | 0.00 | 71 | 1012.0 |
| 20260506234119 | 18 | 281 | 0.0 | 0.0 | 0.00 | 0.00 | 0.00 | 71 | 1012.0 |
| 20260506233119 | 18 | 272 | 0.0 | 0.0 | 0.00 | 0.00 | 0.00 | 71 | 1012.0 |
| 20260506232049 | 18 | 281 | 0.0 | 0.0 | 0.00 | 0.00 | 0.00 | 71 | 1012.0 |
| 20260506231049 | 18 | 252 | 0.0 | 0.0 | 0.00 | 0.00 | 0.00 | 70 | 1012.0 |
| 20260506230049 | 18 | 259 | 0.0 | 0.0 | 0.00 | 0.00 | 0.00 | 69 | 1012.0 |
| 20260506225019 | 18 | 254 | 0.0 | 0.0 | 0.00 | 0.00 | 0.00 | 68 | 1012.0 |
| 20260506223949 | 18 | 251 | 0.0 | 0.0 | 0.00 | 0.00 | 0.00 | 67 | 1012.0 |
| 20260506222919 | 18 | 261 | 0.0 | 0.0 | 0.00 | 0.00 | 0.00 | 65 | 1012.0 |
| 20260506221919 | 18 | 246 | 0.0 | 0.0 | 0.00 | 0.00 | 0.00 | 63 | 1012.0 |
| 20260506220919 | 18 | 257 | 0.0 | 0.0 | 0.00 | 0.00 | 0.00 | 64 | 1012.0 |
| 20260506215849 | 18 | 245 | 0.0 | 0.0 | 0.00 | 0.00 | 0.00 | 63 | 1012.0 |
| 20260506214849 | 18 | 253 | 0.0 | 0.0 | 0.00 | 0.00 | 0.00 | 62 | 1011.0 |
| 20260506213819 | 18 | 289 | 0.0 | 0.0 | 0.00 | 0.00 | 0.00 | 60 | 1011.0 |
| 20260506212749 | 18 | 273 | 0.0 | 0.0 | 0.00 | 0.00 | 0.00 | 59 | 1011.0 |
| 20260506211749 | 19 | 269 | 0.0 | 0.0 | 0.00 | 0.00 | 0.00 | 57 | 1011.0 |
| 20260506210719 | 19 | 280 | 0.0 | 0.0 | 0.00 | 0.00 | 0.00 | 57 | 1011.0 |
| 20260506205649 | 19 | 280 | 0.0 | 0.0 | 0.00 | 0.00 | 0.00 | 56 | 1011.0 |
| 20260506204649 | 19 | 281 | 0.0 | 0.0 | 0.00 | 0.00 | 0.00 | 56 | 1010.0 |
| 20260506203649 | 19 | 277 | 0.0 | 0.0 | 0.00 | 0.00 | 0.00 | 55 | 1011.0 |
| 20260506202619 | 19 | 290 | 0.0 | 0.0 | 0.00 | 0.00 | 0.00 | 54 | 1011.0 |
| 20260506201549 | 18 | 260 | 0.0 | 0.0 | 0.00 | 0.00 | 0.00 | 56 | 1011.0 |
| 20260506200549 | 17 | 275 | 0.0 | 0.0 | 0.00 | 0.00 | 0.00 | 56 | 1010.0 |
| 20260506195549 | 17 | 165 | 0.0 | 0.0 | 0.00 | 0.00 | 0.00 | 52 | 1010.2 |
| 20260506194548 | 17 | 158 | 0.0 | 0.0 | 0.00 | 0.00 | 0.00 | 51 | 1011.0 |
| 20260506193549 | 17 | 135 | 0.0 | 0.0 | 0.00 | 0.00 | 0.00 | 50 | 1010.0 |
| 20260506192548 | 18 | 135 | 0.0 | 0.0 | 0.00 | 0.00 | 0.00 | 49 | 1010.0 |
| 20260506191548 | 18 | 158 | 0.0 | 0.0 | 0.00 | 0.00 | 0.00 | 49 | 1010.0 |
| 20260506190518 | 18 | 158 | 0.0 | 0.0 | 0.00 | 0.00 | 0.00 | 48 | 1011.0 |
| 20260506185518 | 18 | 131 | 0.0 | 0.0 | 0.00 | 0.00 | 0.00 | 48 | 1010.8 |
| 20260506184448 | 19 | 22 | 0.0 | 0.0 | 0.00 | 0.00 | 0.00 | 46 | 1010.0 |
| 20260506183448 | 19 | 22 | 0.0 | 0.0 | 0.00 | 0.00 | 0.00 | 45 | 1010.0 |
| 20260506182448 | 20 | 22 | 0.0 | 0.0 | 0.00 | 0.00 | 0.00 | 43 | 1010.0 |
| 20260506181418 | 20 | 22 | 0.0 | 0.0 | 0.00 | 0.00 | 0.00 | 42 | 1010.0 |
| 20260506180348 | 21 | 22 | 0.0 | 0.0 | 0.00 | 0.00 | 0.00 | 41 | 1010.0 |
| 20260506175348 | 21 | 22 | 0.0 | 0.0 | 0.00 | 0.00 | 0.00 | 39 | 1010.0 |
| 20260506174318 | 22 | 22 | 0.0 | 0.0 | 0.00 | 0.00 | 0.00 | 38 | 1010.0 |
| 20260506173248 | 23 | 22 | 0.0 | 0.0 | 0.00 | 0.00 | 0.00 | 37 | 1010.0 |
| 20260506172248 | 23 | 248 | 0.0 | 0.0 | 0.00 | 0.00 | 0.00 | 36 | 1010.0 |
| 20260506171218 | 23 | 248 | 0.0 | 0.0 | 0.00 | 0.00 | 0.00 | 35 | 1010.0 |
| 20260506170148 | 24 | 244 | 0.0 | 0.0 | 0.00 | 0.00 | 0.00 | 34 | 1010.0 |
| 20260506165118 | 24 | 228 | 0.0 | 0.0 | 0.00 | 0.00 | 0.00 | 34 | 1010.0 |
| 20260506164118 | 25 | 234 | 0.0 | 0.0 | 0.00 | 0.00 | 0.00 | 34 | 1010.0 |
| 20260506163118 | 25 | 225 | 0.0 | 0.0 | 0.00 | 0.00 | 0.00 | 34 | 1010.0 |
| 20260506162048 | 25 | 221 | 0.0 | 0.0 | 0.00 | 0.00 | 0.00 | 33 | 1010.0 |
| 20260506161048 | 25 | 186 | 0.0 | 0.0 | 0.00 | 0.00 | 0.00 | 33 | 1010.0 |
| 20260506160048 | 25 | 184 | 0.0 | 0.0 | 0.00 | 0.00 | 0.00 | 33 | 1010.0 |
| 20260506155018 | 25 | 192 | 0.0 | 0.0 | 0.00 | 0.00 | 0.00 | 33 | 1010.0 |
| 20260506154018 | 25 | 233 | 0.0 | 0.0 | 0.00 | 0.00 | 0.00 | 33 | 1010.0 |
| 20260506153018 | 25 | 178 | 0.0 | 0.0 | 0.00 | 0.00 | 0.00 | 33 | 1010.0 |
| 20260506151948 | 26 | 184 | 0.0 | 0.0 | 0.00 | 0.00 | 0.00 | 33 | 1009.0 |
| 20260506150918 | 26 | 196 | 0.0 | 0.0 | 0.00 | 0.00 | 0.00 | 32 | 1010.0 |
| 20260506145918 | 26 | 231 | 0.0 | 0.0 | 0.00 | 0.00 | 0.00 | 32 | 1010.0 |
| 20260506144848 | 26 | 214 | 0.0 | 0.0 | 0.00 | 0.00 | 0.00 | 32 | 1010.0 |
| 20260506143818 | 26 | 150 | 0.0 | 0.0 | 0.00 | 0.00 | 0.00 | 32 | 1010.0 |
| 20260506142748 | 27 | 212 | 0.0 | 0.0 | 0.00 | 0.00 | 0.00 | 32 | 1010.0 |
| 20260506141748 | 27 | 244 | 0.0 | 0.0 | 0.00 | 0.00 | 0.00 | 32 | 1010.0 |
| 20260506140718 | 27 | 228 | 0.0 | 0.0 | 0.00 | 0.00 | 0.00 | 32 | 1010.0 |
| 20260506135718 | 27 | 201 | 0.0 | 0.0 | 0.00 | 0.00 | 0.00 | 32 | 1010.0 |
| 20260506134648 | 27 | 249 | 0.0 | 0.0 | 0.00 | 0.00 | 0.00 | 33 | 1010.0 |
| 20260506133648 | 27 | 189 | 0.0 | 0.0 | 0.00 | 0.00 | 0.00 | 33 | 1010.0 |
| 20260506132618 | 26 | 235 | 0.0 | 0.0 | 0.00 | 0.00 | 0.00 | 33 | 1010.0 |
| 20260506131618 | 26 | 204 | 0.0 | 0.0 | 0.00 | 0.00 | 0.00 | 33 | 1010.0 |
| 20260506130618 | 26 | 148 | 0.0 | 0.0 | 0.00 | 0.00 | 0.00 | 33 | 1011.0 |
| 20260506125548 | 26 | 231 | 0.0 | 0.0 | 0.00 | 0.00 | 0.00 | 33 | 1011.2 |
| 20260506124548 | 26 | 203 | 0.0 | 0.0 | 0.00 | 0.00 | 0.00 | 34 | 1012.0 |
| 20260506123518 | 26 | 235 | 0.0 | 0.0 | 0.00 | 0.00 | 0.00 | 34 | 1012.0 |
| 20260506122448 | 26 | 181 | 0.0 | 0.0 | 0.00 | 0.00 | 0.00 | 33 | 1011.0 |
| 20260506121448 | 26 | 232 | 0.0 | 0.0 | 0.00 | 0.00 | 0.00 | 34 | 1011.0 |
| 20260506120417 | 26 | 162 | 0.0 | 0.0 | 0.00 | 0.00 | 0.00 | 34 | 1012.0 |
| 20260506115417 | 26 | 192 | 0.0 | 0.0 | 0.00 | 0.00 | 0.00 | 34 | 1012.0 |
| 20260506114417 | 26 | 221 | 0.0 | 0.0 | 0.00 | 0.00 | 0.00 | 35 | 1012.0 |
| 20260506113347 | 26 | 162 | 0.0 | 0.0 | 0.00 | 0.00 | 0.00 | 35 | 1012.0 |
| 20260506112317 | 26 | 188 | 0.0 | 0.0 | 0.00 | 0.00 | 0.00 | 35 | 1012.0 |
| 20260506111247 | 25 | 193 | 0.0 | 0.0 | 0.00 | 0.00 | 0.00 | 36 | 1012.0 |
| 20260506110247 | 25 | 187 | 0.0 | 0.0 | 0.00 | 0.00 | 0.00 | 37 | 1012.0 |
| 20260506105217 | 25 | 184 | 0.0 | 0.0 | 0.00 | 0.00 | 0.00 | 38 | 1013.0 |
| 20260506104147 | 24 | 217 | 0.0 | 0.0 | 0.00 | 0.00 | 0.00 | 38 | 1013.0 |
| 20260506103147 | 24 | 158 | 0.0 | 0.0 | 0.00 | 0.00 | 0.00 | 38 | 1012.0 |
| 20260506102117 | 23 | 173 | 0.0 | 0.0 | 0.00 | 0.00 | 0.00 | 39 | 1012.0 |
| 20260506101047 | 23 | 237 | 0.0 | 0.0 | 0.00 | 0.00 | 0.00 | 38 | 1012.0 |
| 20260506100047 | 24 | 198 | 0.0 | 0.0 | 0.00 | 0.00 | 0.00 | 38 | 1012.0 |
| 20260506095017 | 24 | 182 | 0.0 | 0.0 | 0.00 | 0.00 | 0.00 | 39 | 1012.0 |
| 20260506094017 | 25 | 162 | 0.0 | 0.0 | 0.00 | 0.00 | 0.00 | 39 | 1012.2 |
| 20260506092947 | 24 | 181 | 0.0 | 0.0 | 0.00 | 0.00 | 0.00 | 39 | 1013.0 |
| 20260506091917 | 24 | 189 | 0.0 | 0.0 | 0.00 | 0.00 | 0.00 | 40 | 1012.0 |
| 20260506090847 | 23 | 175 | 0.0 | 0.0 | 0.00 | 0.00 | 0.00 | 41 | 1012.0 |
| 20260506085817 | 23 | 154 | 0.0 | 0.0 | 0.00 | 0.00 | 0.00 | 42 | 1012.0 |
| 20260506084817 | 23 | 172 | 0.0 | 0.0 | 0.00 | 0.00 | 0.00 | 42 | 1012.0 |
| 20260506083817 | 22 | 176 | 0.0 | 0.0 | 0.00 | 0.00 | 0.00 | 42 | 1013.0 |
| 20260506082747 | 22 | 168 | 0.0 | 0.0 | 0.00 | 0.00 | 0.00 | 42 | 1013.0 |
| 20260506081717 | 22 | 205 | 0.0 | 0.0 | 0.00 | 0.00 | 0.00 | 43 | 1012.0 |
| 20260506080647 | 22 | 208 | 0.0 | 0.0 | 0.00 | 0.00 | 0.00 | 44 | 1013.0 |
| 20260506072517 | 21 | 227 | 0.0 | 0.0 | 0.00 | 0.00 | 0.00 | 46 | 1012.1 |
| 20260506071517 | 21 | 169 | 0.0 | 0.0 | 0.00 | 0.00 | 0.00 | 48 | 1013.0 |
| 20260506070517 | 20 | 205 | 0.0 | 0.0 | 0.00 | 0.00 | 0.00 | 48 | 1013.0 |
| 20260506062317 | 18 | 188 | 0.0 | 0.0 | 0.00 | 0.00 | 0.00 | 54 | 1012.0 |
| 20260506061247 | 18 | 176 | 0.0 | 0.0 | 0.00 | 0.00 | 0.00 | 55 | 1012.0 |
| 20260506060247 | 17 | 172 | 0.0 | 0.0 | 0.00 | 0.00 | 0.00 | 57 | 1013.0 |
| 20260506051047 | 15 | 160 | 0.0 | 0.0 | 0.00 | 0.00 | 0.00 | 72 | 1012.2 |
| 20260506045047 | 13 | 159 | 0.0 | 0.0 | 0.00 | 0.00 | 0.00 | 74 | 1012.0 |
| 20260506044047 | 13 | 177 | 0.0 | 0.0 | 0.00 | 0.00 | 0.00 | 74 | 1012.0 |
| 20260506043017 | 13 | 161 | 0.0 | 0.0 | 0.00 | 0.00 | 0.00 | 74 | 1012.0 |
| 20260506041947 | 12 | 158 | 0.0 | 0.0 | 0.00 | 0.00 | 0.00 | 74 | 1012.0 |
| 20260506040917 | 12 | 173 | 0.0 | 0.0 | 0.00 | 0.00 | 0.00 | 74 | 1012.0 |
| 20260506035846 | 12 | 168 | 0.0 | 0.0 | 0.00 | 0.00 | 0.00 | 74 | 1012.0 |